This is the latest recevied weather packets stored in our database for station/object OE5OVL-13. If no packets are shown the sender has not sent any weather packets the latest 10 day(s).
| Time | Temp. | Humidity | Pressure | Rain* | Wind** | Luminosity | Snow |
|---|---|---|---|---|---|---|---|
| 1777820969 | 38.89° C | 17% | 750.4 hPa | 0 mm | - | - | - |
| 1777820057 | 39.44° C | 16% | 751.1 hPa | 0 mm | - | - | - |
| 1777819146 | 38.89° C | 16% | 750.8 hPa | 0 mm | - | - | - |
| 1777817322 | 38.33° C | 16% | 749.7 hPa | 0 mm | - | - | - |
| 1777816410 | 37.22° C | 16% | 748.9 hPa | 0 mm | - | - | - |
| 1777815499 | 36.67° C | 18% | 747.9 hPa | 0 mm | - | - | - |
| 1777814587 | 35.56° C | 19% | 746.6 hPa | 0 mm | - | - | - |
| 1777813675 | 35° C | 20% | 746.2 hPa | 0 mm | - | - | - |
| 1777812763 | 33.89° C | 21% | 744.7 hPa | 0 mm | - | - | - |
| 1777810940 | 32.22° C | 26% | 742.9 hPa | 0 mm | - | - | - |
| 1777810028 | 31.11° C | 27% | 741.9 hPa | 0 mm | - | - | - |
| 1777809116 | 30° C | 29% | 740.7 hPa | 0 mm | - | - | - |
| 1777808204 | 29.44° C | 31% | 739.5 hPa | 0 mm | - | - | - |
| 1777807293 | 28.33° C | 33% | 738.2 hPa | 0 mm | - | - | - |
| 1777806381 | 27.22° C | 33% | 737.2 hPa | 0 mm | - | - | - |
| 1777805469 | 26.11° C | 33% | 736.1 hPa | 0 mm | - | - | - |
| 1777804558 | 25.56° C | 36% | 735.1 hPa | 0 mm | - | - | - |
| 1777803646 | 25° C | 38% | 734.4 hPa | 0 mm | - | - | - |
| 1777802734 | 23.89° C | 39% | 733.5 hPa | 0 mm | - | - | - |
| 1777801822 | 23.33° C | 43% | 732.5 hPa | 0 mm | - | - | - |
| 1777800911 | 22.22° C | 45% | 731.4 hPa | 0 mm | - | - | - |
| 1777799999 | 21.11° C | 48% | 730.5 hPa | 0 mm | - | - | - |
| 1777799087 | 20.56° C | 50% | 729.4 hPa | 0 mm | - | - | - |
| 1777798175 | 19.44° C | 50% | 728.4 hPa | 0 mm | - | - | - |
| 1777796352 | 17.78° C | 51% | 726.4 hPa | 0 mm | - | - | - |
* Rain latest hour (hover to see other rain measurements)
** Current wind speed in m/s (hover to see current wind gust speed)